TIARET current weather conditions

sailwx.info

Wind from 260 at 10 knots

Air temperature 2.0° C
Visibility: greater than 5.4 NM
Dewpoint 1.0° C

Last reported at 2015-Jan-28 02:00 UTC.
Time now 2015-Jan-28 04:15 UTC

Location: N 35°15' E 001°26'.
View on Google Maps.

See reports from other nearby stations

  
Tides and Currents Weather Stations Pressure Air Temp Water Temp Dewpoint Dewpoint Depression Visibility Wind Speed Wind Dir Waves Ship Positions
date/time (UTC)wind fromknots sea level pressurealtimeterstation pressurevisibilityair tempwater tempwave heightnotes
2015-Jan-28 03:00 5.4 4.0
2015-Jan-28 02:00 260 10 5.4 2.0
2015-Jan-28 01:00 250 9 5.4 2.0
2015-Jan-28 00:00 260 6 5.4 3.0
2015-Jan-27 23:00 240 4 5.4 3.0
2015-Jan-27 22:00 240 4 5.4 3.0
2015-Jan-27 21:00 260 4 5.4 4.0
2015-Jan-27 20:00 280 8 5.4 5.0
2015-Jan-27 19:00 280 10 5.4 6.0
2015-Jan-27 18:00 280 12 5.4 6.0
2015-Jan-27 17:00 280 6 5.4 7.0
2015-Jan-27 16:00 250 8 5.410.0
2015-Jan-27 15:00 250 10 5.410.0
2015-Jan-27 14:00 240 12 5.4 9.0
2015-Jan-27 13:00 260 10 5.4 8.0
2015-Jan-27 12:00 240 7 4.3 7.0
2015-Jan-27 11:00 240 8 2.2 5.0 Mist.
2015-Jan-27 10:00 240 10 2.2 4.0 Mist.
2015-Jan-27 09:45 240 10 2.2 4.0 Mist.
2015-Jan-27 09:44 240 10 2.2 4.0
2015-Jan-27 09:00 4.3 3.0
2015-Jan-27 08:00 4.3 1.0
2015-Jan-27 07:00 240 6 5.4-0.0
2015-Jan-27 06:00 240 5 5.4-1.0
2015-Jan-27 04:00 240 6 5.4-0.0
2015-Jan-27 03:00 280 7 5.4-0.0
2015-Jan-27 02:00 280 9 5.4 2.0
2015-Jan-27 01:00 300 9 5.4 2.0
2015-Jan-27 00:00 290 10 5.4 2.0
2015-Jan-26 23:00 290 10 5.4 2.0
2015-Jan-26 22:00 280 10 5.4 2.0
2015-Jan-26 21:00 300 10 5.4 2.0
2015-Jan-26 20:00 290 9 5.4 3.0
2015-Jan-26 19:00 290 9 5.4 3.0
2015-Jan-26 18:00 320 9 5.4 4.0
2015-Jan-26 17:00 320 10 5.4 5.0
2015-Jan-26 16:00 320 11 5.4 7.0
2015-Jan-26 15:00 310 11 5.4 7.0
2015-Jan-26 14:00 320 9 5.4 7.0
2015-Jan-26 13:00 320 10 5.4 6.0
2015-Jan-26 12:00 340 8 5.4 5.0
2015-Jan-26 11:00 320 6 5.4 5.0
2015-Jan-26 10:00 290 7 5.4 4.0
2015-Jan-26 09:00 250 5 2.0
2015-Jan-26 08:00 230 9 -0.0
2015-Jan-26 07:00 270 4 5.4-1.0
2015-Jan-26 06:00 5.4-0.0
2015-Jan-26 05:00 280 6 5.4-0.0
2015-Jan-26 04:00 280 6 5.4-0.0